Miscellaneous Local Product
Issued by NWS Hastings, NE

Home | Current Version | Previous Version | Graphics & Text | Print | Product List | Glossary On
Versions: 1 2 3 4 5 6 7 8 9 10 11 12 13 14 15 16 17 18 19 20 21 22 23 24 25 26 27 28 29 30 31 32 33 34 35 36 37 38 39 40 41 42 43 44 45 46 47 48 49 50
000
AXUS43 KGID 221210
MISGRI

GID CWA HOURLY WEATHER ROUNDUP
NATIONAL WEATHER SERVICE HASTINGS NE
700 AM CDT MON SEP 22 2014

NOTE: "FAIR" INDICATES FEW OR NO CLOUDS BELOW 12,000 FEET WITH NO
SIGNIFICANT WEATHER AND/OR OBSTRUCTIONS TO VISIBILITY.

...SOUTH CENTRAL NEBRASKA...

CITY           SKY/WX    TMP DP  RH WIND       PRES   REMARKS
GRAND ISLAND   CLEAR     47  42  83 SW3       30.32R
HASTINGS       CLEAR     47  41  80 CALM      30.31S
KEARNEY        MOCLDY    48  43  81 S6        30.32S
ORD            CLEAR     40  38  93 CALM      30.29S
YORK           CLEAR     45  45 100 CALM      30.31S
AURORA         CLEAR     45  42  91 CALM      30.31S
LEXINGTON      MOCLDY    51  47  86 SE5       30.30F
HOLDREGE       PTCLDY    49  45  85 CALM      30.30F
HEBRON         CLEAR     41  39  93 CALM      30.32S

...NEBRASKA PANHANDLE...

CITY           SKY/WX    TMP DP  RH WIND       PRES   REMARKS
CHADRON        MOCLDY    60  41  49 S20G28    30.12S
ALLIANCE       MOCLDY    54  41  61 SE12      30.19F
SCOTTSBLUFF    MOCLDY    61  42  49 S14       30.16F
SIDNEY         PTCLDY    58  41  53 S18       30.22F

...WESTERN AND NORTH CENTRAL NEBRASKA...

CITY           SKY/WX    TMP DP  RH WIND       PRES   REMARKS
VALENTINE      CLEAR     48  42  80 S8        30.23F
AINSWORTH      CLEAR     48  43  81 S7        30.26S
ONEILL         CLEAR     46  43  91 S6        30.28F
BROKEN BOW     CLEAR     42  40  92 CALM      30.29F
IMPERIAL       MOCLDY    57  41  55 SE7       30.26F
NORTH PLATTE   PTCLDY    48  43  82 E7        30.27F
MCCOOK         PTCLDY    52  44  74 E5        30.29F

...EASTERN NEBRASKA...

CITY           SKY/WX    TMP DP  RH WIND       PRES   REMARKS
NORFOLK        CLEAR     40  38  93 CALM      30.30R
SO SIOUX CITY  CLEAR     44  42  93 SE3       30.31R
TEKAMAH        PTCLDY    43  41  93 CALM      30.32R
COLUMBUS       CLEAR     37  36  93 CALM      30.32S
ALBION         CLEAR     40  38  91 CALM      30.30S
OMAHA EPPLEY   PTCLDY    49  47  93 CALM      30.32R
OFFUTT AFB     FOG       46  46 100 CALM      30.31S VSB 3/4
MILLARD        CLEAR     48  47  97 CALM      30.32R
LINCOLN        CLEAR     44  41  89 CALM      30.32S
NEBRASKA CITY    N/A     51  47  84 CALM      30.32R
BEATRICE       CLEAR     42  40  95 CALM      30.31S
FALLS CITY     CLEAR     47  46  97 NW3       30.31R

...NORTHERN KANSAS...

CITY           SKY/WX    TMP DP  RH WIND       PRES   REMARKS
GOODLAND       PTCLDY    50  42  74 S13       30.30F
HILL CITY      CLOUDY    54  45  71 E5        30.31R
NORTON         SUNNY     50  39  66 SE5       30.29
SMITH CENTER   PTCLDY    48  43  81 E6        30.32S HAZE
BELOIT         CLEAR     45  45 100 CALM      30.30F
HAYS           PTCLDY    54  43  66 E3        30.32R
RUSSELL        PTCLDY    51  46  83 SE8       30.30R
CONCORDIA      CLEAR     46  45  96 W3        30.32R
SALINA         CLEAR     52  46  80 CALM      30.32R
TOPEKA         CLEAR     46  46 100 CALM      30.32R



USA.gov is the U.S. government's official web portal to all federal, state and local government web resources and services.